[[{"header":{"parameterUnit":"m.s-1","parameterCategory":1,"la1":30.2991,"la2":30.254,"lo1":-89.0895,"lo2":-89.0444,"dy":0.0017,"dx":0.0017,"nx":28,"ny":28,"refTime":"2023-08-04T21:00:00:Z","depth":0,"parameterNumber":2,"parameterNumberName":"U-component_of_WINDS"},"data":[0,0,0,0,0,0,0,0,0,0,0,0,0,0,0,0,0,0,0,0,0,0,0,0,0,0,0,0,0,0,0,0,0,0,0,0,0,0,0,0,0,0,0,0,0,0,0,0,0,0,0,0,0,0,0,0,0,0,3.5134,3.5135,0,3.5177,3.5178,3.5178,3.514,3.5138,3.5136,3.5135,3.518,3.5183,3.5186,0,0,0,0,0,0,0,0,0,0,0,0,0,3.5022,3.5024,3.5134,3.5135,3.5135,3.5177,3.5178,3.5178,3.514,3.5138,3.5136,3.5134,3.5179,3.5183,3.5186,0,0,0,0,0,0,0,0,0,0,0,0,0,3.5068,3.5025,3.5134,3.5121,3.512,3.5177,3.5178,3.5178,3.514,3.5138,3.5136,3.5133,3.5178,3.5182,3.5186,3.5258,0,0,3.5199,3.52,0,0,0,0,0,0,0,0,3.5066,3.5072,3.5122,3.5122,3.5121,3.5151,3.5155,3.5205,3.5141,3.5133,3.5135,3.5132,3.5172,3.5177,3.519,3.526,3.5262,3.5199,3.5201,3.5203,3.5204,0,0,0,0,0,0,0,3.5062,3.507,3.5151,3.5123,3.5123,3.5114,3.5118,3.5164,3.5165,3.5133,3.5131,3.5136,3.5172,3.5186,3.5191,3.5263,3.5199,3.5202,3.5205,3.5206,3.5398,3.5401,0,0,0,0,0,0,3.506,3.5068,3.515,3.5152,3.5087,3.5118,3.5122,3.5144,3.5165,3.5166,3.5138,3.5134,3.5181,3.5186,3.5192,3.528,3.5203,3.5207,3.5209,3.5395,3.5399,3.5402,0,0,0,0,0,0,3.5058,3.5068,3.5148,3.511,3.5119,3.5122,3.5146,3.5146,3.516,3.5168,3.5169,3.5153,3.5179,3.5187,3.5243,3.5281,3.5209,3.5212,3.5392,3.5396,3.54,3.5455,0,0,0,0,0,0,3.5055,3.5067,3.5094,3.511,3.5121,3.5197,3.5149,3.5148,3.5167,3.5162,3.5182,3.5183,3.5178,3.5237,3.5247,3.5285,3.5215,3.5389,3.5394,3.5399,3.545,3.546,3.547,0,0,0,0,0,3.5051,3.5107,3.5095,3.5105,3.5154,3.5199,3.5205,3.5198,3.517,3.5198,3.5204,3.5182,3.5275,3.5243,3.5254,3.5294,3.5386,3.5393,3.5398,3.5445,3.5458,3.5469,0,0,0,0,0,0,3.5095,3.5109,3.5096,3.5159,3.5178,3.5192,3.5226,3.5211,3.5239,3.5233,3.5223,3.5228,3.5288,3.5296,3.526,3.5367,3.5327,3.5335,3.5359,3.5371,3.5381,3.5378,3.5219,0,0,0,0,0,3.5111,3.5146,3.5157,3.5211,3.5222,3.5223,3.5242,3.5235,3.5254,3.5262,3.5272,3.5293,3.5327,3.5349,3.5381,3.5451,3.5456,3.5484,3.5494,3.5502,3.551,3.555,3.5564,3.5421,3.5421,3.5421,0,0,3.5147,3.5159,3.5181,3.5221,3.5235,3.5272,3.523,3.527,3.5299,3.5269,3.5323,3.5331,3.5353,3.5418,3.5446,3.5427,3.555,3.551,3.5516,3.552,3.5558,3.5572,3.5584,3.5425,3.5425,3.5424,0,0,3.523,3.5242,3.529,3.5306,3.5328,3.5329,3.534,3.5358,3.5362,3.5416,3.5396,3.5429,3.5487,3.5505,3.5522,3.5616,3.5598,3.5626,3.5678,3.5718,3.5729,3.5739,3.5774,3.5787,3.5634,3.5634,3.5634,0,3.5271,3.5326,3.5317,3.536,3.5379,3.5354,3.5404,3.5419,3.5451,3.5465,3.5443,3.5517,3.553,3.56,3.5623,3.5637,3.5651,3.5624,3.5728,3.5738,3.5747,3.5781,3.5794,3.5637,3.5637,3.5636,3.5636,0,3.5377,3.5415,3.5452,3.5483,3.5506,3.5552,3.5552,3.5576,3.5568,3.5572,3.5629,3.5644,3.568,3.5695,3.5687,3.5765,3.5752,3.5729,3.5689,3.5764,3.5796,3.5808,3.5642,3.5641,3.564,3.5639,0,0,3.5487,3.5515,3.5529,3.5544,3.5568,3.5599,3.5645,3.568,3.5702,3.5725,3.5765,3.5816,3.5796,3.5815,3.5809,3.5843,3.592,3.5816,3.5817,3.5837,3.6009,3.6028,3.6043,3.5908,3.5911,3.5913,3.6008,0,3.5574,3.5653,3.5648,3.5723,3.576,3.5739,3.5779,3.5799,3.5805,3.5838,3.5844,3.5881,3.585,3.5862,3.5895,3.5903,3.5955,3.5896,3.5947,3.5949,3.5943,3.6059,3.6077,3.6167,3.602,3.6022,3.6024,0,3.5684,3.5712,3.5792,3.5813,3.5828,3.5865,3.5898,3.5929,3.5952,3.5954,3.5977,3.5965,3.6014,3.5973,3.6041,3.6001,3.6022,3.6029,3.6033,3.6038,3.5991,3.6068,3.6194,3.6209,3.6043,3.6041,3.604,0,3.5759,3.5817,3.5873,3.5886,3.5912,3.5938,3.595,3.5971,3.5994,3.6023,3.6038,3.6072,3.6092,3.6119,3.6119,3.6088,3.6189,3.6146,3.6193,3.6193,3.6215,3.6214,3.6348,3.6227,3.6227,3.6226,3.6226,0,3.5857,3.5907,3.5908,3.5942,3.5998,3.5992,3.6049,3.6058,3.6077,3.6114,3.6097,3.6133,3.6129,3.6165,3.6165,3.6223,3.6231,3.6235,3.6235,3.6238,3.6237,3.6251,3.6246,3.623,3.6229,3.6228,3.6228,0,3.595,3.5953,3.6012,3.6032,3.6039,3.6079,3.6097,3.6131,3.6135,3.6183,3.6194,3.6201,3.6243,3.6245,3.6293,3.6294,3.6365,3.6356,3.6357,3.6356,3.6403,3.6399,3.6551,3.6572,3.6436,3.6437,3.6438,0,3.6013,3.6051,3.6076,3.6099,3.6113,3.6151,3.6174,3.6171,3.6196,3.6227,3.6257,3.6298,3.633,3.6399,3.6409,3.6447,3.6441,3.6492,3.6446,3.6449,3.6444,3.6442,3.6447,3.6501,3.6502,3.6503,3.6504,0,3.6124,3.6124,3.6158,3.6193,3.6221,3.6249,3.6274,3.6295,3.6295,3.6324,3.6367,3.6392,3.6442,3.6484,3.6521,3.6534,3.6521,3.6519,3.6532,3.6535,3.6535,3.6538,3.6382,3.6515,3.6514,3.6513,3.6513,3.6512,3.6205,3.6239,3.6263,3.6302,3.6321,3.6346,3.6379,3.6389,3.6424,3.6465,3.6461,3.6509,3.6534,3.6583,3.66,3.6638,3.6621,3.664,3.6644,3.665,3.6655,3.6528,3.6645,3.6645,3.6644,3.6644,3.6644,0,3.6318,3.6332,3.6368,3.6405,3.6436,3.642,3.6448,3.6476,3.6519,3.6543,3.6576,3.6627,3.6667,3.6682,3.6722,3.675,3.6745,3.6761,3.676,3.6764,3.6668,3.6653,3.6765,3.6765,3.6765,3.6765,3.6765,3.6765,3.638,3.6437,3.644,3.6508,3.6522,3.657,3.6588,3.6611,3.6631,3.6688,3.6722,3.6731,3.6753,3.6795,3.6832,3.6836,3.6852,3.6871,3.6872,3.6782,3.677,3.6758,3.6745,3.6874,3.6874,3.6965,3.6966,3.6967]},{"header":{"parameterUnit":"m.s-1","parameterCategory":1,"la1":30.2991,"la2":30.254,"lo1":-89.0895,"lo2":-89.0444,"dy":0.0017,"dx":0.0017,"nx":28,"ny":28,"refTime":"2023-08-04T21:00:00:Z","depth":0,"parameterNumber":3,"parameterNumberName":"V-component_of_WINDS"},"data":[0,0,0,0,0,0,0,0,0,0,0,0,0,0,0,0,0,0,0,0,0,0,0,0,0,0,0,0,0,0,0,0,0,0,0,0,0,0,0,0,0,0,0,0,0,0,0,0,0,0,0,0,0,0,0,0,0,0,-1.1714,-1.1714,0,-1.1728,-1.1728,-1.1728,-1.1735,-1.1735,-1.1735,-1.1735,-1.1749,-1.175,-1.175,0,0,0,0,0,0,0,0,0,0,0,0,0,-1.1694,-1.1694,-1.1714,-1.1714,-1.1714,-1.1728,-1.1728,-1.1728,-1.1735,-1.1735,-1.1735,-1.1735,-1.1749,-1.1749,-1.175,0,0,0,0,0,0,0,0,0,0,0,0,0,-1.1705,-1.1695,-1.1714,-1.172,-1.172,-1.1728,-1.1728,-1.1728,-1.1735,-1.1735,-1.1735,-1.1735,-1.1749,-1.1749,-1.175,-1.1753,0,0,-1.1752,-1.1752,0,0,0,0,0,0,0,0,-1.1704,-1.1706,-1.1719,-1.1719,-1.172,-1.173,-1.1726,-1.1737,-1.1735,-1.173,-1.1735,-1.1735,-1.1743,-1.1744,-1.1746,-1.1754,-1.1755,-1.1752,-1.1752,-1.1752,-1.1752,0,0,0,0,0,0,0,-1.1704,-1.1705,-1.172,-1.1719,-1.172,-1.1722,-1.1723,-1.1728,-1.1736,-1.173,-1.1731,-1.1732,-1.1743,-1.1746,-1.1747,-1.1755,-1.1752,-1.1752,-1.1753,-1.1753,-1.1768,-1.1768,0,0,0,0,0,0,-1.1702,-1.1704,-1.1719,-1.172,-1.1712,-1.1722,-1.1724,-1.1727,-1.1736,-1.1737,-1.1732,-1.1732,-1.1745,-1.1746,-1.1747,-1.1753,-1.1752,-1.1753,-1.1753,-1.1768,-1.1768,-1.1768,0,0,0,0,0,0,-1.1701,-1.1703,-1.1719,-1.1712,-1.1715,-1.1722,-1.1726,-1.1727,-1.173,-1.1738,-1.1739,-1.1734,-1.1745,-1.1747,-1.1752,-1.1754,-1.1753,-1.1754,-1.1768,-1.1768,-1.1768,-1.1764,0,0,0,0,0,0,-1.1701,-1.1703,-1.1704,-1.1712,-1.1715,-1.1723,-1.1726,-1.1727,-1.1731,-1.1731,-1.1739,-1.174,-1.1745,-1.1751,-1.1753,-1.1754,-1.1754,-1.1768,-1.1768,-1.1768,-1.1764,-1.1764,-1.1764,0,0,0,0,0,-1.17,-1.1702,-1.1704,-1.1706,-1.1716,-1.1723,-1.1724,-1.173,-1.1731,-1.1732,-1.1738,-1.174,-1.1753,-1.1752,-1.1754,-1.1755,-1.1768,-1.1768,-1.1768,-1.1764,-1.1764,-1.1764,0,0,0,0,0,0,-1.1692,-1.1703,-1.1705,-1.171,-1.1716,-1.1724,-1.1726,-1.1729,-1.1735,-1.1735,-1.1741,-1.1743,-1.1749,-1.1753,-1.1751,-1.176,-1.1761,-1.1761,-1.1757,-1.1757,-1.1757,-1.1756,-1.1754,0,0,0,0,0,-1.1691,-1.1696,-1.1705,-1.1708,-1.1711,-1.1718,-1.1721,-1.1725,-1.1731,-1.1733,-1.1739,-1.1745,-1.1751,-1.1754,-1.176,-1.1765,-1.1767,-1.1767,-1.1767,-1.1767,-1.1767,-1.1772,-1.1772,-1.1769,-1.1769,-1.1769,0,0,-1.1689,-1.1695,-1.1697,-1.1706,-1.1711,-1.1716,-1.172,-1.1724,-1.1729,-1.1734,-1.174,-1.1745,-1.1752,-1.1758,-1.1761,-1.1761,-1.1769,-1.1767,-1.1767,-1.1767,-1.1772,-1.1772,-1.1773,-1.1769,-1.1769,-1.1769,0,0,-1.1687,-1.1692,-1.1696,-1.1701,-1.1709,-1.1714,-1.1715,-1.1724,-1.1727,-1.1733,-1.1738,-1.1743,-1.1752,-1.1758,-1.1762,-1.1765,-1.1768,-1.1766,-1.1766,-1.177,-1.1771,-1.1771,-1.1773,-1.1773,-1.1767,-1.1767,-1.1767,0,-1.1683,-1.1691,-1.1697,-1.1702,-1.1707,-1.1713,-1.1717,-1.1722,-1.1731,-1.1734,-1.1735,-1.1748,-1.1753,-1.1761,-1.1762,-1.1764,-1.1767,-1.1765,-1.177,-1.177,-1.1771,-1.1773,-1.1773,-1.1766,-1.1766,-1.1766,-1.1766,0,-1.1686,-1.1691,-1.1693,-1.1703,-1.1708,-1.1712,-1.172,-1.1724,-1.1728,-1.1733,-1.1741,-1.1748,-1.1755,-1.1758,-1.1761,-1.1767,-1.1767,-1.1769,-1.177,-1.1771,-1.1773,-1.1774,-1.1766,-1.1766,-1.1766,-1.1766,0,0,-1.1678,-1.1693,-1.1694,-1.1699,-1.1709,-1.1713,-1.1719,-1.1727,-1.1731,-1.1738,-1.1743,-1.1752,-1.1754,-1.1759,-1.1763,-1.1767,-1.1771,-1.1769,-1.1769,-1.1769,-1.1779,-1.1778,-1.1779,-1.1773,-1.1773,-1.1773,-1.1779,0,-1.1678,-1.1689,-1.1696,-1.1704,-1.171,-1.1717,-1.1722,-1.1729,-1.1734,-1.1741,-1.1747,-1.1753,-1.1755,-1.1758,-1.1763,-1.1769,-1.1773,-1.1769,-1.1779,-1.1779,-1.1777,-1.1779,-1.1778,-1.1783,-1.1779,-1.1779,-1.178,0,-1.168,-1.1687,-1.1696,-1.1707,-1.171,-1.1714,-1.1723,-1.1729,-1.1738,-1.1742,-1.1748,-1.1753,-1.176,-1.1761,-1.1771,-1.1769,-1.1773,-1.1777,-1.1778,-1.1779,-1.1779,-1.1782,-1.1784,-1.1785,-1.1781,-1.1781,-1.1781,0,-1.1675,-1.1687,-1.1694,-1.1698,-1.1711,-1.1714,-1.172,-1.1729,-1.1734,-1.1742,-1.1746,-1.1754,-1.1759,-1.1766,-1.1773,-1.1773,-1.1784,-1.1785,-1.1788,-1.1788,-1.179,-1.179,-1.1794,-1.1792,-1.1792,-1.1792,-1.1792,0,-1.1674,-1.1679,-1.1692,-1.1696,-1.1703,-1.1712,-1.1718,-1.1724,-1.1733,-1.1739,-1.1745,-1.1751,-1.1761,-1.1768,-1.1774,-1.1783,-1.1785,-1.1789,-1.179,-1.1788,-1.1788,-1.1791,-1.1792,-1.1792,-1.1792,-1.1792,-1.1792,0,-1.1669,-1.1678,-1.1686,-1.1699,-1.1702,-1.1706,-1.1717,-1.1722,-1.1729,-1.1737,-1.1739,-1.175,-1.1759,-1.1768,-1.1779,-1.1784,-1.1793,-1.1794,-1.179,-1.1791,-1.1794,-1.1794,-1.1801,-1.1803,-1.1799,-1.1799,-1.1799,0,-1.1669,-1.1673,-1.1686,-1.1691,-1.1697,-1.1705,-1.1711,-1.172,-1.1725,-1.1737,-1.1741,-1.1751,-1.1759,-1.1774,-1.1783,-1.1792,-1.1795,-1.1797,-1.1796,-1.1795,-1.1796,-1.1796,-1.1797,-1.1797,-1.1797,-1.1797,-1.1797,0,-1.1667,-1.1671,-1.1679,-1.169,-1.1696,-1.1705,-1.1713,-1.1717,-1.1728,-1.1734,-1.1744,-1.1751,-1.1764,-1.1774,-1.1785,-1.1791,-1.1796,-1.1797,-1.1798,-1.1796,-1.1794,-1.1797,-1.1791,-1.1796,-1.1796,-1.1796,-1.1796,-1.1796,-1.1665,-1.167,-1.168,-1.1689,-1.1697,-1.1705,-1.1711,-1.172,-1.1728,-1.174,-1.1745,-1.1755,-1.1766,-1.1781,-1.1788,-1.1797,-1.1797,-1.1799,-1.18,-1.18,-1.18,-1.1793,-1.1798,-1.1798,-1.1798,-1.1799,-1.1799,0,-1.1664,-1.1672,-1.168,-1.1692,-1.17,-1.1705,-1.1715,-1.1721,-1.173,-1.174,-1.1749,-1.1761,-1.1771,-1.1782,-1.1793,-1.1798,-1.1801,-1.1801,-1.1801,-1.1803,-1.1798,-1.1797,-1.1799,-1.1799,-1.1799,-1.1799,-1.1799,-1.1799,-1.1664,-1.1674,-1.168,-1.1693,-1.1701,-1.1712,-1.1717,-1.1726,-1.1734,-1.1747,-1.1756,-1.1763,-1.1774,-1.1786,-1.1796,-1.1799,-1.1803,-1.1803,-1.1807,-1.1803,-1.1803,-1.1802,-1.1801,-1.1804,-1.1804,-1.181,-1.181,-1.181]}]]